{"data":{"norad_id":55345,"epoch":"2026-09-20T12:08:36.100032Z","epoch_age_seconds":96111,"freshness":"FRESH","line1":"1 55345U 23013Q   26263.50597338  .00000352  00000+0  22302-4 0  9992","line2":"2 55345  43.0012 268.8319 0000853 261.4570  98.6184 15.27575319201635","mean_motion":15.27575319,"eccentricity":8.53e-5,"inclination_deg":43.0012,"raan_deg":268.8319,"arg_perigee_deg":261.457,"mean_anomaly_deg":98.6184,"bstar":2.2302e-5,"rev_number":20163,"period_min":94.267037578394,"perigee_km":482.47785230382,"apogee_km":483.64837304304,"semimajor_km":6861.2001126734,"source":"CELESTRAK","updated_at":"2026-09-21T09:00:33.181151Z"}}